Flag Weather past 2 weeks in Toruń, Poland

Now
29 °F

Fog.


Feels Like: 24 °F
Forecast: 25 / 30 °F
Wind: 5 mph from East

Location: Torun

Current Time: Nov 28, 2014 at 4:45:00 AM

Latest Report: Nov 28, 2014 at 3:00 AM


Visibility: 3 mi

Pressure: 30.24 "Hg

Humidity: 86%

Dew point: 26 °F

Location of ToruńLocation

Historic Weather in Toruń — Graph

°F

Toruń temperature yesterday

Maximum temperature yesterday: 38 °F (at 12:00 AM)
Minimum temperature yesterday: 31 °F (at 9:00 PM)
Average temperature yesterday: 34 °F

Past Weeks' High & Low Weather Summary

 TemperatureHumidityPressure
High49 °F (Nov 14, 11:00 AM)100% (Nov 25, 12:00 AM)30.47 "Hg (Nov 25, 12:00 AM)
Low29 °F (Nov 28, 3:00 AM)70% (Nov 24, 12:00 PM)29.84 "Hg (Nov 16, 2:00 PM)
Average39 °F92%30.18 "Hg
* Reported Nov 13 3:00 AM — Nov 28 3:00 AM, Toruń, Weather by CustomWeather, © 2014

Note: Actual official high and low records may vary slightly from our data, if they occured in-between our weather recording intervals... More about our weather records

Advertising

Toruń weather history for previous 24 hours

 ConditionsComfort  
Time TempWeatherWind HumidityBarometerVisibility
3:00 AM
Nov 28
29 °FFog.5 mph86%30.24 "Hg3 mi
2:00 AM30 °FFog.5 mph83%30.24 "Hg4 mi
1:00 AM31 °FFog.3 mph82%30.24 "Hg1 mi
12:00 AM31 °FFog.2 mph85%30.24 "Hg3 mi
11:00 PM
Nov 27
31 °FFog.3 mph84%30.24 "Hg4 mi
10:00 PM31 °FFog.2 mph87%30.24 "Hg3 mi
9:00 PM31 °FFog.3 mph89%30.24 "Hg3 mi
8:00 PM31 °FFog.5 mph89%30.22 "Hg2 mi
7:00 PM32 °FFog.5 mph89%30.22 "Hg3 mi
6:00 PM33 °FFog.3 mph91%30.22 "Hg2 mi
5:00 PM34 °FFog.3 mph89%30.21 "Hg2 mi
4:00 PM34 °FFog.2 mph90%30.20 "Hg2 mi
3:00 PM34 °FFog.3 mph88%30.20 "Hg2 mi
2:00 PM35 °FFog.3 mph90%30.20 "Hg2 mi
1:00 PM35 °FFog.3 mph91%30.21 "Hg2 mi
12:00 PM34 °FFog.2 mph95%30.22 "Hg2 mi
11:00 AM33 °FFog.2 mph95%30.23 "Hg2 mi
10:00 AM33 °FFog.3 mph95%30.24 "Hg2 mi
9:00 AM33 °FFog.3 mph93%30.24 "Hg2 mi
8:00 AM35 °FFog.3 mph91%30.23 "Hg4 mi
7:00 AM34 °FFog.3 mph92%30.23 "Hg3 mi
6:00 AM34 °FFog.3 mph92%30.23 "Hg4 mi
5:00 AM35 °FFog.2 mph91%30.23 "Hg5 mi
4:00 AM35 °FFog.3 mph90%30.23 "Hg6 mi
Weather by CustomWeather, © 2014

See weather overviewHow to use our weather pages